Location: ??
(35.1714°N, 128.2806°E)
Time: 15:29:44
(UTC+00:00)

ATLAS 3B R/B - Pass Details

Date: 29 October 2020
Orbit: 1014 x 1181 km, 63.8° (Epoch: 23 November)

Event Time Altitude Azimuth Distance (km) Brightness Sun altitude
Exits shadow 19:54:13 45° 291° (WNW) 1,351 2.8 -23.4°
Maximum altitude 19:54:48 46° 306° (NW) 1,332 2.8 -23.3°
Drops below altitude 10° 20:01:09 10° 19° (NNE) 2,826 5.1 -22.0°
Sets 20:03:55 0° 26° (NNE) 3,797 5.9 -21.4°
